Year,Month,Day,Hour,Minute,Value (Times are PST for temperature in C)
2009,03,18,00,00,1.40
2009,03,18,00,01,1.40
2009,03,18,00,02,1.40
2009,03,18,00,03,1.30
2009,03,18,00,04,1.30
2009,03,18,00,05,1.30
2009,03,18,00,06,1.30
2009,03,18,00,07,1.30
2009,03,18,00,08,1.30
2009,03,18,00,09,1.30
2009,03,18,00,10,1.30
2009,03,18,00,11,1.30
2009,03,18,00,12,1.30
2009,03,18,00,13,1.30
2009,03,18,00,14,1.30
2009,03,18,00,15,1.30
2009,03,18,00,16,1.30
2009,03,18,00,17,1.30
2009,03,18,00,18,1.30
2009,03,18,00,19,1.30
2009,03,18,00,20,1.30
2009,03,18,00,21,1.30
2009,03,18,00,22,1.20
2009,03,18,00,23,1.20
2009,03,18,00,24,1.20
2009,03,18,00,25,1.20
2009,03,18,00,26,1.20
2009,03,18,00,27,1.20
2009,03,18,00,28,1.20
2009,03,18,00,29,1.20
2009,03,18,00,30,1.20
2009,03,18,00,31,1.20
2009,03,18,00,32,1.20
2009,03,18,00,33,1.20
2009,03,18,00,34,1.20
2009,03,18,00,35,1.20
2009,03,18,00,36,1.30
2009,03,18,00,37,1.30
2009,03,18,00,38,1.30
2009,03,18,00,39,1.30
2009,03,18,00,40,1.30
2009,03,18,00,41,1.30
2009,03,18,00,42,1.30
2009,03,18,00,43,1.30
2009,03,18,00,44,1.30
2009,03,18,00,45,1.40
2009,03,18,00,46,1.40
2009,03,18,00,47,1.40
2009,03,18,00,48,1.40
2009,03,18,00,49,1.40
2009,03,18,00,50,1.40
2009,03,18,00,51,1.40
2009,03,18,00,52,1.40
2009,03,18,00,53,1.40
2009,03,18,00,54,1.40
2009,03,18,00,55,1.40
2009,03,18,00,56,1.40
2009,03,18,00,57,1.40
2009,03,18,00,58,1.40
2009,03,18,00,59,1.40
2009,03,18,01,00,1.40
2009,03,18,01,01,1.50
2009,03,18,01,02,1.50
2009,03,18,01,03,1.50
2009,03,18,01,04,1.50
2009,03,18,01,05,1.50
2009,03,18,01,06,1.50
2009,03,18,01,07,1.50
2009,03,18,01,08,1.40
2009,03,18,01,09,1.40
2009,03,18,01,10,1.40
2009,03,18,01,11,1.40
2009,03,18,01,12,1.40
2009,03,18,01,13,1.40
2009,03,18,01,14,1.40
2009,03,18,01,15,1.40
2009,03,18,01,16,1.40
2009,03,18,01,17,1.40
2009,03,18,01,18,1.40
2009,03,18,01,19,1.40
2009,03,18,01,20,1.40
2009,03,18,01,21,1.40
2009,03,18,01,22,1.40
2009,03,18,01,23,1.40
2009,03,18,01,24,1.50
2009,03,18,01,25,1.50
2009,03,18,01,26,1.50
2009,03,18,01,27,1.50
2009,03,18,01,28,1.50
2009,03,18,01,29,1.50
2009,03,18,01,30,1.50
2009,03,18,01,31,1.50
2009,03,18,01,32,1.40
2009,03,18,01,33,1.40
2009,03,18,01,34,1.40
2009,03,18,01,35,1.40
2009,03,18,01,36,1.40
2009,03,18,01,37,1.30
2009,03,18,01,38,1.30
2009,03,18,01,39,1.30
2009,03,18,01,40,1.30
2009,03,18,01,41,1.30
2009,03,18,01,42,1.30
2009,03,18,01,43,1.30
2009,03,18,01,44,1.30
2009,03,18,01,45,1.30
2009,03,18,01,46,1.30
2009,03,18,01,47,1.30
2009,03,18,01,48,1.30
2009,03,18,01,49,1.30
2009,03,18,01,50,1.30
2009,03,18,01,51,1.20
2009,03,18,01,52,1.20
2009,03,18,01,53,1.20
2009,03,18,01,54,1.20
2009,03,18,01,55,1.20
2009,03,18,01,56,1.20
2009,03,18,01,57,1.20
2009,03,18,01,58,1.20
2009,03,18,01,59,1.20
2009,03,18,02,00,1.20
2009,03,18,02,01,1.20
2009,03,18,02,02,1.20
2009,03,18,02,03,1.20
2009,03,18,02,04,1.20
2009,03,18,02,05,1.20
2009,03,18,02,06,1.20
2009,03,18,02,07,1.30
2009,03,18,02,08,1.30
2009,03,18,02,09,1.30
2009,03,18,02,10,1.30
2009,03,18,02,11,1.30
2009,03,18,02,12,1.30
2009,03,18,02,13,1.30
2009,03,18,02,14,1.30
2009,03,18,02,15,1.30
2009,03,18,02,16,1.40
2009,03,18,02,17,1.40
2009,03,18,02,18,1.40
2009,03,18,02,19,1.50
2009,03,18,02,20,1.50
2009,03,18,02,21,1.60
2009,03,18,02,22,1.70
2009,03,18,02,23,1.70
2009,03,18,02,24,1.80
2009,03,18,02,25,1.80
2009,03,18,02,26,1.90
2009,03,18,02,27,1.90
2009,03,18,02,28,2.00
2009,03,18,02,29,2.00
2009,03,18,02,30,2.10
2009,03,18,02,31,2.10
2009,03,18,02,32,2.10
2009,03,18,02,33,2.10
2009,03,18,02,34,2.10
2009,03,18,02,35,2.10
2009,03,18,02,36,2.10
2009,03,18,02,37,2.10
2009,03,18,02,38,2.20
2009,03,18,02,39,2.20
2009,03,18,02,40,2.20
2009,03,18,02,41,2.20
2009,03,18,02,42,2.20
2009,03,18,02,43,2.20
2009,03,18,02,44,2.20
2009,03,18,02,45,2.20
2009,03,18,02,46,2.20
2009,03,18,02,47,2.20
2009,03,18,02,48,2.20
2009,03,18,02,49,2.20
2009,03,18,02,50,2.20
2009,03,18,02,51,2.20
2009,03,18,02,52,2.30
2009,03,18,02,53,2.30
2009,03,18,02,54,2.30
2009,03,18,02,55,2.40
2009,03,18,02,56,2.40
2009,03,18,02,57,2.40
2009,03,18,02,58,2.50
2009,03,18,02,59,2.50
2009,03,18,03,00,2.50
2009,03,18,03,01,2.60
2009,03,18,03,02,2.60
2009,03,18,03,03,2.70
2009,03,18,03,04,2.70
2009,03,18,03,05,2.70
2009,03,18,03,06,2.80
2009,03,18,03,07,2.90
2009,03,18,03,08,2.90
2009,03,18,03,09,2.90
2009,03,18,03,10,2.90
2009,03,18,03,11,2.90
2009,03,18,03,12,3.00
2009,03,18,03,13,3.10
2009,03,18,03,14,3.10
2009,03,18,03,15,3.10
2009,03,18,03,16,3.10
2009,03,18,03,17,3.10
2009,03,18,03,18,3.10
2009,03,18,03,19,3.10
2009,03,18,03,20,3.10
2009,03,18,03,21,3.00
2009,03,18,03,22,2.90
2009,03,18,03,23,2.90
2009,03,18,03,24,2.90
2009,03,18,03,25,2.90
2009,03,18,03,26,2.90
2009,03,18,03,27,2.90
2009,03,18,03,28,2.90
2009,03,18,03,29,2.90
2009,03,18,03,30,3.00
2009,03,18,03,31,3.10
2009,03,18,03,32,3.10
2009,03,18,03,33,3.10
2009,03,18,03,34,3.10
2009,03,18,03,35,3.10
2009,03,18,03,36,3.10
2009,03,18,03,37,3.20
2009,03,18,03,38,3.20
2009,03,18,03,39,3.30
2009,03,18,03,40,3.30
2009,03,18,03,41,3.30
2009,03,18,03,42,3.30
2009,03,18,03,43,3.30
2009,03,18,03,44,3.30
2009,03,18,03,45,3.30
2009,03,18,03,46,3.30
2009,03,18,03,47,3.30
2009,03,18,03,48,3.30
2009,03,18,03,49,3.30
2009,03,18,03,50,3.30
2009,03,18,03,51,3.30
2009,03,18,03,52,3.30
2009,03,18,03,53,3.30
2009,03,18,03,54,3.30
2009,03,18,03,55,3.30
2009,03,18,03,56,3.30
2009,03,18,03,57,3.30
2009,03,18,03,58,3.30
2009,03,18,03,59,3.30
2009,03,18,04,00,3.30
2009,03,18,04,01,3.30
2009,03,18,04,02,3.30
2009,03,18,04,03,3.30
2009,03,18,04,04,3.30
2009,03,18,04,05,3.30
2009,03,18,04,06,3.30
2009,03,18,04,07,3.30
2009,03,18,04,08,3.30
2009,03,18,04,09,3.30
2009,03,18,04,10,3.30
2009,03,18,04,11,3.30
2009,03,18,04,12,3.40
2009,03,18,04,13,3.40
2009,03,18,04,14,3.40
2009,03,18,04,15,3.40
2009,03,18,04,16,3.40
2009,03,18,04,17,3.40
2009,03,18,04,18,3.40
2009,03,18,04,19,3.40
2009,03,18,04,20,3.40
2009,03,18,04,21,3.40
2009,03,18,04,22,3.40
2009,03,18,04,23,3.40
2009,03,18,04,24,3.40
2009,03,18,04,25,3.40
2009,03,18,04,26,3.40
2009,03,18,04,27,3.40
2009,03,18,04,28,3.40
2009,03,18,04,29,3.40
2009,03,18,04,30,3.40
2009,03,18,04,31,3.40
2009,03,18,04,32,3.40
2009,03,18,04,33,3.40
2009,03,18,04,34,3.40
2009,03,18,04,35,3.40
2009,03,18,04,36,3.40
2009,03,18,04,37,3.40
2009,03,18,04,38,3.40
2009,03,18,04,39,3.40
2009,03,18,04,40,3.40
2009,03,18,04,41,3.40
2009,03,18,04,42,3.40
2009,03,18,04,43,3.40
2009,03,18,04,44,3.40
2009,03,18,04,45,3.40
2009,03,18,04,46,3.40
2009,03,18,04,47,3.40
2009,03,18,04,48,3.40
2009,03,18,04,49,3.40
2009,03,18,04,50,3.40
2009,03,18,04,51,3.40
2009,03,18,04,52,3.40
2009,03,18,04,53,3.40
2009,03,18,04,54,3.40
2009,03,18,04,55,3.40
2009,03,18,04,56,3.40
2009,03,18,04,57,3.40
2009,03,18,04,58,3.40
2009,03,18,04,59,3.30
2009,03,18,05,00,3.30
2009,03,18,05,01,3.30
2009,03,18,05,02,3.30
2009,03,18,05,03,3.30
2009,03,18,05,04,3.30
2009,03,18,05,05,3.30
2009,03,18,05,06,3.30
2009,03,18,05,07,3.30
2009,03,18,05,08,3.30
2009,03,18,05,09,3.30
2009,03,18,05,10,3.30
2009,03,18,05,11,3.30
2009,03,18,05,12,3.30
2009,03,18,05,13,3.30
2009,03,18,05,14,3.30
2009,03,18,05,15,3.30
2009,03,18,05,16,3.30
2009,03,18,05,17,3.30
2009,03,18,05,18,3.30
2009,03,18,05,19,3.30
2009,03,18,05,20,3.30
2009,03,18,05,21,3.30
2009,03,18,05,22,3.30
2009,03,18,05,23,3.30
2009,03,18,05,24,3.30
2009,03,18,05,25,3.30
2009,03,18,05,26,3.30
2009,03,18,05,27,3.30
2009,03,18,05,28,3.30
2009,03,18,05,29,3.30
2009,03,18,05,30,3.30
2009,03,18,05,31,3.30
2009,03,18,05,32,3.30
2009,03,18,05,33,3.30
2009,03,18,05,34,3.30
2009,03,18,05,35,3.30
2009,03,18,05,36,3.30
2009,03,18,05,37,3.30
2009,03,18,05,38,3.30
2009,03,18,05,39,3.30
2009,03,18,05,40,3.30
2009,03,18,05,41,3.30
2009,03,18,05,42,3.30
2009,03,18,05,43,3.30
2009,03,18,05,44,3.30
2009,03,18,05,45,3.30
2009,03,18,05,46,3.30
2009,03,18,05,47,3.30
2009,03,18,05,48,3.30
2009,03,18,05,49,3.30
2009,03,18,05,50,3.30
2009,03,18,05,51,3.30
2009,03,18,05,52,3.30
2009,03,18,05,53,3.30
2009,03,18,05,54,3.30
2009,03,18,05,55,3.30
2009,03,18,05,56,3.30
2009,03,18,05,57,3.30
2009,03,18,05,58,3.30
2009,03,18,05,59,3.30
2009,03,18,06,00,3.30
2009,03,18,06,01,3.30
2009,03,18,06,02,3.30
2009,03,18,06,03,3.30
2009,03,18,06,04,3.30
2009,03,18,06,05,3.30
2009,03,18,06,06,3.30
2009,03,18,06,07,3.30
2009,03,18,06,08,3.30
2009,03,18,06,09,3.30
2009,03,18,06,10,3.30
2009,03,18,06,11,3.30
2009,03,18,06,12,3.30
2009,03,18,06,13,3.30
2009,03,18,06,14,3.30
2009,03,18,06,15,3.30
2009,03,18,06,16,3.30
2009,03,18,06,17,3.30
2009,03,18,06,18,3.40
2009,03,18,06,19,3.40
2009,03,18,06,20,3.40
2009,03,18,06,21,3.40
2009,03,18,06,22,3.40
2009,03,18,06,23,3.40
2009,03,18,06,24,3.40
2009,03,18,06,25,3.40
2009,03,18,06,26,3.40
2009,03,18,06,27,3.40
2009,03,18,06,28,3.40
2009,03,18,06,29,3.40
2009,03,18,06,30,3.40
2009,03,18,06,31,3.40
2009,03,18,06,32,3.40
2009,03,18,06,33,3.40
2009,03,18,06,34,3.40
2009,03,18,06,35,3.40
2009,03,18,06,36,3.40
2009,03,18,06,37,3.40
2009,03,18,06,38,3.40
2009,03,18,06,39,3.40
2009,03,18,06,40,3.40
2009,03,18,06,41,3.40
2009,03,18,06,42,3.40
2009,03,18,06,43,3.40
2009,03,18,06,44,3.40
2009,03,18,06,45,3.40
2009,03,18,06,46,3.40
2009,03,18,06,47,3.40
2009,03,18,06,48,3.40
2009,03,18,06,49,3.40
2009,03,18,06,50,3.40
2009,03,18,06,51,3.50
2009,03,18,06,52,3.50
2009,03,18,06,53,3.50
2009,03,18,06,54,3.50
2009,03,18,06,55,3.50
2009,03,18,06,56,3.50
2009,03,18,06,57,3.50
2009,03,18,06,58,3.60
2009,03,18,06,59,3.60
2009,03,18,07,00,3.60
2009,03,18,07,01,3.60
2009,03,18,07,02,3.60
2009,03,18,07,03,3.60
2009,03,18,07,04,3.60
2009,03,18,07,05,3.50
2009,03,18,07,06,3.50
2009,03,18,07,07,3.50
2009,03,18,07,08,3.50
2009,03,18,07,09,3.50
2009,03,18,07,10,3.50
2009,03,18,07,11,3.60
2009,03,18,07,12,3.60
2009,03,18,07,13,3.60
2009,03,18,07,14,3.60
2009,03,18,07,15,3.60
2009,03,18,07,16,3.60
2009,03,18,07,17,3.60
2009,03,18,07,18,3.60
2009,03,18,07,19,3.60
2009,03,18,07,20,3.60
2009,03,18,07,21,3.60
2009,03,18,07,22,3.60
2009,03,18,07,23,3.60
2009,03,18,07,24,3.60
2009,03,18,07,25,3.60
2009,03,18,07,26,3.60
2009,03,18,07,27,3.60
2009,03,18,07,28,3.60
2009,03,18,07,29,3.60
2009,03,18,07,30,3.60
2009,03,18,07,31,3.60
2009,03,18,07,32,3.60
2009,03,18,07,33,3.60
2009,03,18,07,34,3.60
2009,03,18,07,35,3.60
2009,03,18,07,36,3.60
2009,03,18,07,37,3.60
2009,03,18,07,38,3.60
2009,03,18,07,39,3.60
2009,03,18,07,40,3.60
2009,03,18,07,41,3.60
2009,03,18,07,42,3.60
2009,03,18,07,43,3.60
2009,03,18,07,44,3.60
2009,03,18,07,45,3.60
2009,03,18,07,46,3.60
2009,03,18,07,47,3.60
2009,03,18,07,48,3.60
2009,03,18,07,49,3.60
2009,03,18,07,50,3.60
2009,03,18,07,51,3.60
2009,03,18,07,52,3.60
2009,03,18,07,53,3.60
2009,03,18,07,54,3.60
2009,03,18,07,55,3.60
2009,03,18,07,56,3.60
2009,03,18,07,57,3.60
2009,03,18,07,58,3.70
2009,03,18,07,59,3.70
2009,03,18,08,00,3.70
2009,03,18,08,01,3.70
2009,03,18,08,02,3.70
2009,03,18,08,03,3.70
2009,03,18,08,04,3.70
2009,03,18,08,05,3.70
2009,03,18,08,06,3.70
2009,03,18,08,07,3.70
2009,03,18,08,08,3.70
2009,03,18,08,09,3.70
2009,03,18,08,10,3.70
2009,03,18,08,11,3.70
2009,03,18,08,12,3.70
2009,03,18,08,13,3.70
2009,03,18,08,14,3.70
2009,03,18,08,15,3.70
2009,03,18,08,16,3.80
2009,03,18,08,17,3.80
2009,03,18,08,18,3.80
2009,03,18,08,19,3.80
2009,03,18,08,20,3.80
2009,03,18,08,21,3.80
2009,03,18,08,22,3.80
2009,03,18,08,23,3.80
2009,03,18,08,24,3.80
2009,03,18,08,25,3.80
2009,03,18,08,26,3.80
2009,03,18,08,27,3.80
2009,03,18,08,28,3.80
2009,03,18,08,29,3.80
2009,03,18,08,30,3.80
2009,03,18,08,31,3.80
2009,03,18,08,32,3.80
2009,03,18,08,33,3.90
2009,03,18,08,34,3.90
2009,03,18,08,35,3.90
2009,03,18,08,36,3.90
2009,03,18,08,37,4.00
2009,03,18,08,38,4.00
2009,03,18,08,39,4.00
2009,03,18,08,40,4.00
2009,03,18,08,41,4.00
2009,03,18,08,42,4.00
2009,03,18,08,43,4.00
2009,03,18,08,44,4.00
2009,03,18,08,45,4.10
2009,03,18,08,46,4.10
2009,03,18,08,47,4.10
2009,03,18,08,48,4.10
2009,03,18,08,49,4.10
2009,03,18,08,50,4.10
2009,03,18,08,51,4.20
2009,03,18,08,52,4.20
2009,03,18,08,53,4.20
2009,03,18,08,54,4.20
2009,03,18,08,55,4.20
2009,03,18,08,56,4.20
2009,03,18,08,57,4.20
2009,03,18,08,58,4.30
2009,03,18,08,59,4.30
2009,03,18,09,00,4.30
2009,03,18,09,01,4.30
2009,03,18,09,02,4.30
2009,03,18,09,03,4.30
2009,03,18,09,04,4.30
2009,03,18,09,05,4.40
2009,03,18,09,06,4.40
2009,03,18,09,07,4.40
2009,03,18,09,08,4.40
2009,03,18,09,09,4.40
2009,03,18,09,10,4.40
2009,03,18,09,11,4.40
2009,03,18,09,12,4.40
2009,03,18,09,13,4.40
2009,03,18,09,14,4.40
2009,03,18,09,15,4.40
2009,03,18,09,16,4.40
2009,03,18,09,17,4.40
2009,03,18,09,18,4.40
2009,03,18,09,19,4.40
2009,03,18,09,20,4.40
2009,03,18,09,21,4.40
2009,03,18,09,22,4.40
2009,03,18,09,23,4.40
2009,03,18,09,24,4.40
2009,03,18,09,25,4.40
2009,03,18,09,26,4.40
2009,03,18,09,27,4.40
2009,03,18,09,28,4.30
2009,03,18,09,29,4.30
2009,03,18,09,30,4.30
2009,03,18,09,31,4.30
2009,03,18,09,32,4.30
2009,03,18,09,33,4.40
2009,03,18,09,34,4.40
2009,03,18,09,35,4.40
2009,03,18,09,36,4.40
2009,03,18,09,37,4.40
2009,03,18,09,38,4.40
2009,03,18,09,39,4.40
2009,03,18,09,40,4.50
2009,03,18,09,41,4.50
2009,03,18,09,42,4.50
2009,03,18,09,43,4.50
2009,03,18,09,44,4.50
2009,03,18,09,45,4.50
2009,03,18,09,46,4.50
2009,03,18,09,47,4.50
2009,03,18,09,48,4.50
2009,03,18,09,49,4.50
2009,03,18,09,50,4.50
2009,03,18,09,51,4.50
2009,03,18,09,52,4.50
2009,03,18,09,53,4.50
2009,03,18,09,54,4.50
2009,03,18,09,55,4.50
2009,03,18,09,56,4.60
2009,03,18,09,57,4.60
2009,03,18,09,58,4.60
2009,03,18,09,59,4.60
2009,03,18,10,00,4.60
2009,03,18,10,01,4.60
2009,03,18,10,02,4.70
2009,03,18,10,03,4.70
2009,03,18,10,04,4.70
2009,03,18,10,05,4.70
2009,03,18,10,06,4.70
2009,03,18,10,07,4.70
2009,03,18,10,08,4.80
2009,03,18,10,09,4.80
2009,03,18,10,10,4.80
2009,03,18,10,11,4.80
2009,03,18,10,12,4.80
2009,03,18,10,13,4.90
2009,03,18,10,14,4.90
2009,03,18,10,15,4.90
2009,03,18,10,16,4.90
2009,03,18,10,17,4.90
2009,03,18,10,18,4.90
2009,03,18,10,19,5.00
2009,03,18,10,20,5.10
2009,03,18,10,21,5.10
2009,03,18,10,22,5.10
2009,03,18,10,23,5.10
2009,03,18,10,24,5.10
2009,03,18,10,25,5.20
2009,03,18,10,26,5.10
2009,03,18,10,27,5.10
2009,03,18,10,28,5.10
2009,03,18,10,29,5.10
2009,03,18,10,30,5.10
2009,03,18,10,31,5.10
2009,03,18,10,32,5.10
2009,03,18,10,33,5.10
2009,03,18,10,34,5.10
2009,03,18,10,35,5.10
2009,03,18,10,36,5.10
2009,03,18,10,37,5.10
2009,03,18,10,38,5.10
2009,03,18,10,39,5.10
2009,03,18,10,40,5.10
2009,03,18,10,41,5.20
2009,03,18,10,42,5.20
2009,03,18,10,43,5.30
2009,03,18,10,44,5.30
2009,03,18,10,45,5.30
2009,03,18,10,46,5.40
2009,03,18,10,47,5.40
2009,03,18,10,48,5.50
2009,03,18,10,49,5.50
2009,03,18,10,50,5.60
2009,03,18,10,51,5.60
2009,03,18,10,52,5.60
2009,03,18,10,53,5.70
2009,03,18,10,54,5.70
2009,03,18,10,55,5.70
2009,03,18,10,56,5.60
2009,03,18,10,57,5.60
2009,03,18,10,58,5.60
2009,03,18,10,59,5.60
2009,03,18,11,00,5.60
2009,03,18,11,01,5.60
2009,03,18,11,02,5.60
2009,03,18,11,03,5.60
2009,03,18,11,04,5.60
2009,03,18,11,05,5.60
2009,03,18,11,06,5.60
2009,03,18,11,07,5.70
2009,03,18,11,08,5.70
2009,03,18,11,09,5.70
2009,03,18,11,10,5.70
2009,03,18,11,11,5.70
2009,03,18,11,12,5.70
2009,03,18,11,13,5.60
2009,03,18,11,14,5.70
2009,03,18,11,15,5.70
2009,03,18,11,16,5.70
2009,03,18,11,17,5.70
2009,03,18,11,18,5.70
2009,03,18,11,19,5.70
2009,03,18,11,20,5.70
2009,03,18,11,21,5.70
2009,03,18,11,22,5.70
2009,03,18,11,23,5.70
2009,03,18,11,24,5.70
2009,03,18,11,25,5.70
2009,03,18,11,26,5.70
2009,03,18,11,27,5.70
2009,03,18,11,28,5.70
2009,03,18,11,29,5.70
2009,03,18,11,30,5.70
2009,03,18,11,31,5.70
2009,03,18,11,32,5.70
2009,03,18,11,33,5.70
2009,03,18,11,34,5.70
2009,03,18,11,35,5.70
2009,03,18,11,36,5.70
2009,03,18,11,37,5.70
2009,03,18,11,38,5.70
2009,03,18,11,39,5.70
2009,03,18,11,40,5.70
2009,03,18,11,41,5.70
2009,03,18,11,42,5.70
2009,03,18,11,43,5.80
2009,03,18,11,44,5.80
2009,03,18,11,45,5.80
2009,03,18,11,46,5.80
2009,03,18,11,47,5.80
2009,03,18,11,48,5.80
2009,03,18,11,49,5.80
2009,03,18,11,50,5.80
2009,03,18,11,51,5.80
2009,03,18,11,52,5.80
2009,03,18,11,53,5.90
2009,03,18,11,54,5.90
2009,03,18,11,55,5.90
2009,03,18,11,56,5.90
2009,03,18,11,57,5.90
2009,03,18,11,58,5.90
2009,03,18,11,59,5.90
2009,03,18,12,00,6.00
2009,03,18,12,01,6.00
2009,03,18,12,02,6.10
2009,03,18,12,03,6.10
2009,03,18,12,04,6.10
2009,03,18,12,05,6.10
2009,03,18,12,06,6.10
2009,03,18,12,07,6.20
2009,03,18,12,08,6.20
2009,03,18,12,09,6.20
2009,03,18,12,10,6.20
2009,03,18,12,11,6.20
2009,03,18,12,12,6.20
2009,03,18,12,13,6.20
2009,03,18,12,14,6.20
2009,03,18,12,15,6.20
2009,03,18,12,16,6.20
2009,03,18,12,17,6.20
2009,03,18,12,18,6.20
2009,03,18,12,19,6.20
2009,03,18,12,20,6.20
2009,03,18,12,21,6.20
2009,03,18,12,22,6.20
2009,03,18,12,23,6.20
2009,03,18,12,24,6.30
2009,03,18,12,25,6.30
2009,03,18,12,26,6.30
2009,03,18,12,27,6.30
2009,03,18,12,28,6.30
2009,03,18,12,29,6.30
2009,03,18,12,30,6.30
2009,03,18,12,31,6.30
2009,03,18,12,32,6.30
2009,03,18,12,33,6.30
2009,03,18,12,34,6.40
2009,03,18,12,35,6.40
2009,03,18,12,36,6.40
2009,03,18,12,37,6.40
2009,03,18,12,38,6.40
2009,03,18,12,39,6.40
2009,03,18,12,40,6.40
2009,03,18,12,41,6.40
2009,03,18,12,42,6.60
2009,03,18,12,43,6.60
2009,03,18,12,44,6.60
2009,03,18,12,45,6.60
2009,03,18,12,46,6.50
2009,03,18,12,47,6.40
2009,03,18,12,48,6.40
2009,03,18,12,49,6.40
2009,03,18,12,50,6.40
2009,03,18,12,51,6.30
2009,03,18,12,52,6.30
2009,03,18,12,53,6.20
2009,03,18,12,54,6.20
2009,03,18,12,55,6.20
2009,03,18,12,56,6.20
2009,03,18,12,57,6.20
2009,03,18,12,58,6.20
2009,03,18,12,59,6.20
2009,03,18,13,00,6.30
2009,03,18,13,01,6.30
2009,03,18,13,02,6.40
2009,03,18,13,03,6.40
2009,03,18,13,04,6.40
2009,03,18,13,05,6.50
2009,03,18,13,06,6.60
2009,03,18,13,07,6.60
2009,03,18,13,08,6.60
2009,03,18,13,09,6.60
2009,03,18,13,10,6.70
2009,03,18,13,11,6.70
2009,03,18,13,12,6.70
2009,03,18,13,13,6.60
2009,03,18,13,14,6.60
2009,03,18,13,15,6.60
2009,03,18,13,16,6.70
2009,03,18,13,17,6.70
2009,03,18,13,18,6.70
2009,03,18,13,19,6.70
2009,03,18,13,20,6.60
2009,03,18,13,21,6.60
2009,03,18,13,22,6.60
2009,03,18,13,23,6.60
2009,03,18,13,24,6.60
2009,03,18,13,25,6.60
2009,03,18,13,26,6.60
2009,03,18,13,27,6.60
2009,03,18,13,28,6.60
2009,03,18,13,29,6.60
2009,03,18,13,30,6.60
2009,03,18,13,31,6.60
2009,03,18,13,32,6.60
2009,03,18,13,33,6.60
2009,03,18,13,34,6.70
2009,03,18,13,35,6.70
2009,03,18,13,36,6.80
2009,03,18,13,37,6.80
2009,03,18,13,38,6.80
2009,03,18,13,39,6.90
2009,03,18,13,40,6.90
2009,03,18,13,41,6.80
2009,03,18,13,42,6.80
2009,03,18,13,43,6.80
2009,03,18,13,44,6.80
2009,03,18,13,45,6.80
2009,03,18,13,46,6.80
2009,03,18,13,47,6.80
2009,03,18,13,48,6.80
2009,03,18,13,49,6.90
2009,03,18,13,50,6.90
2009,03,18,13,51,6.90
2009,03,18,13,52,7.00
2009,03,18,13,53,7.00
2009,03,18,13,54,6.90
2009,03,18,13,55,6.90
2009,03,18,13,56,6.90
2009,03,18,13,57,6.90
2009,03,18,13,58,6.90
2009,03,18,13,59,6.80
2009,03,18,14,00,6.80
2009,03,18,14,01,6.90
2009,03,18,14,02,6.90
2009,03,18,14,03,7.00
2009,03,18,14,04,7.00
2009,03,18,14,05,7.10
2009,03,18,14,06,7.20
2009,03,18,14,07,7.20
2009,03,18,14,08,7.30
2009,03,18,14,09,7.30
2009,03,18,14,10,7.30
2009,03,18,14,11,7.30
2009,03,18,14,12,7.30
2009,03,18,14,13,7.30
2009,03,18,14,14,7.30
2009,03,18,14,15,7.30
2009,03,18,14,16,7.30
2009,03,18,14,17,7.30
2009,03,18,14,18,7.30
2009,03,18,14,19,7.30
2009,03,18,14,20,7.30
2009,03,18,14,21,7.30
2009,03,18,14,22,7.30
2009,03,18,14,23,7.30
2009,03,18,14,24,7.30
2009,03,18,14,25,7.30
2009,03,18,14,26,7.40
2009,03,18,14,27,7.40
2009,03,18,14,28,7.40
2009,03,18,14,29,7.40
2009,03,18,14,30,7.40
2009,03,18,14,31,7.30
2009,03,18,14,32,7.30
2009,03,18,14,33,7.30
2009,03,18,14,34,7.30
2009,03,18,14,35,7.30
2009,03,18,14,36,7.40
2009,03,18,14,37,7.40
2009,03,18,14,38,7.40
2009,03,18,14,39,7.40
2009,03,18,14,40,7.40
2009,03,18,14,41,7.40
2009,03,18,14,42,7.40
2009,03,18,14,43,7.40
2009,03,18,14,44,7.40
2009,03,18,14,45,7.50
2009,03,18,14,46,7.50
2009,03,18,14,47,7.50
2009,03,18,14,48,7.60
2009,03,18,14,49,7.60
2009,03,18,14,50,7.60
2009,03,18,14,51,7.60
2009,03,18,14,52,7.60
2009,03,18,14,53,7.60
2009,03,18,14,54,7.60
2009,03,18,14,55,7.70
2009,03,18,14,56,7.60
2009,03,18,14,57,7.60
2009,03,18,14,58,7.60
2009,03,18,14,59,7.50
2009,03,18,15,00,7.60
2009,03,18,15,01,7.60
2009,03,18,15,02,7.60
2009,03,18,15,03,7.60
2009,03,18,15,04,7.70
2009,03,18,15,05,7.70
2009,03,18,15,06,7.80
2009,03,18,15,07,7.80
2009,03,18,15,08,7.90
2009,03,18,15,09,7.90
2009,03,18,15,10,7.90
2009,03,18,15,11,7.90
2009,03,18,15,12,8.00
2009,03,18,15,13,8.00
2009,03,18,15,14,8.00
2009,03,18,15,15,8.00
2009,03,18,15,16,8.00
2009,03,18,15,17,8.10
2009,03,18,15,18,8.10
2009,03,18,15,19,8.20
2009,03,18,15,20,8.20
2009,03,18,15,21,8.20
2009,03,18,15,22,8.20
2009,03,18,15,23,8.20
2009,03,18,15,24,8.20
2009,03,18,15,25,8.20
2009,03,18,15,26,8.20
2009,03,18,15,27,8.20
2009,03,18,15,28,8.20
2009,03,18,15,29,8.20
2009,03,18,15,30,8.30
2009,03,18,15,31,8.30
2009,03,18,15,32,8.30
2009,03,18,15,33,8.30
2009,03,18,15,34,8.30
2009,03,18,15,35,8.30
2009,03,18,15,36,8.30
2009,03,18,15,37,8.30
2009,03,18,15,38,8.30
2009,03,18,15,39,8.30
2009,03,18,15,40,8.30
2009,03,18,15,41,8.30
2009,03,18,15,42,8.40
2009,03,18,15,43,8.40
2009,03,18,15,44,8.50
2009,03,18,15,45,8.50
2009,03,18,15,46,8.40
2009,03,18,15,47,8.40
2009,03,18,15,48,8.40
2009,03,18,15,49,8.40
2009,03,18,15,50,8.40
2009,03,18,15,51,8.40
2009,03,18,15,52,8.50
2009,03,18,15,53,8.50
2009,03,18,15,54,8.70
2009,03,18,15,55,8.70
2009,03,18,15,56,8.60
2009,03,18,15,57,8.50
2009,03,18,15,58,8.50
2009,03,18,15,59,8.60
2009,03,18,16,00,8.60
2009,03,18,16,01,8.60
2009,03,18,16,02,8.60
2009,03,18,16,03,8.60
2009,03,18,16,04,8.60
2009,03,18,16,05,8.60
2009,03,18,16,06,8.70
2009,03,18,16,07,8.70
2009,03,18,16,08,8.70
2009,03,18,16,09,8.70
2009,03,18,16,10,8.70
2009,03,18,16,11,8.70
2009,03,18,16,12,8.80
2009,03,18,16,13,8.80
2009,03,18,16,14,8.90
2009,03,18,16,15,8.90
2009,03,18,16,16,8.90
2009,03,18,16,17,9.00
2009,03,18,16,18,9.10
2009,03,18,16,19,9.00
2009,03,18,16,20,9.00
2009,03,18,16,21,9.00
2009,03,18,16,22,9.00
2009,03,18,16,23,9.10
2009,03,18,16,24,9.20
2009,03,18,16,25,9.20
2009,03,18,16,26,9.20
2009,03,18,16,27,9.20
2009,03,18,16,28,9.20
2009,03,18,16,29,9.20
2009,03,18,16,30,9.20
2009,03,18,16,31,9.20
2009,03,18,16,32,9.30
2009,03,18,16,33,9.40
2009,03,18,16,34,9.40
2009,03,18,16,35,9.40
2009,03,18,16,36,9.40
2009,03,18,16,37,9.30
2009,03,18,16,38,9.30
2009,03,18,16,39,9.30
2009,03,18,16,40,9.30
2009,03,18,16,41,9.20
2009,03,18,16,42,9.20
2009,03,18,16,43,9.20
2009,03,18,16,44,9.20
2009,03,18,16,45,9.30
2009,03,18,16,46,9.40
2009,03,18,16,47,9.40
2009,03,18,16,48,9.40
2009,03,18,16,49,9.50
2009,03,18,16,50,9.50
2009,03,18,16,51,9.50
2009,03,18,16,52,9.50
2009,03,18,16,53,9.50
2009,03,18,16,54,9.50
2009,03,18,16,55,9.40
2009,03,18,16,56,9.40
2009,03,18,16,57,9.30
2009,03,18,16,58,9.20
2009,03,18,16,59,9.20
2009,03,18,17,00,9.20
2009,03,18,17,01,9.20
2009,03,18,17,02,9.10
2009,03,18,17,03,9.10
2009,03,18,17,04,9.00
2009,03,18,17,05,8.90
2009,03,18,17,06,8.80
2009,03,18,17,07,8.80
2009,03,18,17,08,8.80
2009,03,18,17,09,8.70
2009,03,18,17,10,8.70
2009,03,18,17,11,8.70
2009,03,18,17,12,8.70
2009,03,18,17,13,8.70
2009,03,18,17,14,8.70
2009,03,18,17,15,8.70
2009,03,18,17,16,8.70
2009,03,18,17,17,8.70
2009,03,18,17,18,8.70
2009,03,18,17,19,8.70
2009,03,18,17,20,8.70
2009,03,18,17,21,8.70
2009,03,18,17,22,8.70
2009,03,18,17,23,8.70
2009,03,18,17,24,8.70
2009,03,18,17,25,8.70
2009,03,18,17,26,8.70
2009,03,18,17,27,8.70
2009,03,18,17,28,8.70
2009,03,18,17,29,8.70
2009,03,18,17,30,8.70
2009,03,18,17,31,8.60
2009,03,18,17,32,8.60
2009,03,18,17,33,8.70
2009,03,18,17,34,8.70
2009,03,18,17,35,8.70
2009,03,18,17,36,8.70
2009,03,18,17,37,8.80
2009,03,18,17,38,8.90
2009,03,18,17,39,8.90
2009,03,18,17,40,8.90
2009,03,18,17,41,8.90
2009,03,18,17,42,8.80
2009,03,18,17,43,8.80
2009,03,18,17,44,8.80
2009,03,18,17,45,8.80
2009,03,18,17,46,8.80
2009,03,18,17,47,8.80
2009,03,18,17,48,8.70
2009,03,18,17,49,8.70
2009,03,18,17,50,8.70
2009,03,18,17,51,8.70
2009,03,18,17,52,8.70
2009,03,18,17,53,8.70
2009,03,18,17,54,8.70
2009,03,18,17,55,8.70
2009,03,18,17,56,8.70
2009,03,18,17,57,8.70
2009,03,18,17,58,8.70
2009,03,18,17,59,8.70
2009,03,18,18,00,8.70
2009,03,18,18,01,8.70
2009,03,18,18,02,8.70
2009,03,18,18,03,8.70
2009,03,18,18,04,8.70
2009,03,18,18,05,8.70
2009,03,18,18,06,8.60